This is the latest recevied weather packets stored in our database for station/object N9BID. If no packets are shown the sender has not sent any weather packets the latest 10 day(s).
| Time | Temp. | Humidity | Pressure | Rain* | Wind** | Luminosity | Snow |
|---|---|---|---|---|---|---|---|
| 1777499024 | 10° C | 54% | 1006.9 hPa | 0 mm | - | 307 W/m² | - |
| 1777498720 | 11.11° C | 52% | 1006.9 hPa | 0 mm | - | 431 W/m² | - |
| 1777498417 | 11.11° C | 52% | 1006.9 hPa | 0 mm | - | 548 W/m² | - |
| 1777498114 | 10.56° C | 55% | 1006.9 hPa | 0 mm | - | 236 W/m² | - |
| 1777497812 | 11.11° C | 51% | 1006.8 hPa | 0 mm | - | 127 W/m² | - |
| 1777497508 | 10.56° C | 53% | 1007.1 hPa | 0 mm | - | 576 W/m² | - |
| 1777497204 | 10.56° C | 49% | 1007.1 hPa | 0 mm | - | 566 W/m² | - |
| 1777496901 | 10.56° C | 51% | 1007.1 hPa | 0 mm | - | 599 W/m² | - |
| 1777496598 | 11.11° C | 54% | 1007 hPa | 0 mm | - | 334 W/m² | - |
| 1777496294 | 9.44° C | 54% | 1007.1 hPa | 0 mm | - | 562 W/m² | - |
| 1777495990 | 9.44° C | 54% | 1007.2 hPa | 0 mm | - | 101 W/m² | - |
| 1777495686 | 9.44° C | 61% | 1007 hPa | 0 mm | - | 540 W/m² | - |
| 1777495382 | 9.44° C | 56% | 1007.2 hPa | 0 mm | - | 156 W/m² | - |
| 1777495079 | 9.44° C | 56% | 1007.1 hPa | 0 mm | - | 143 W/m² | - |
| 1777494776 | 9.44° C | 56% | 1007.3 hPa | 0 mm | - | 487 W/m² | - |
| 1777494473 | 9.44° C | 55% | 1007.3 hPa | 0 mm | - | 184 W/m² | - |
| 1777494170 | 9.44° C | 57% | 1007.3 hPa | 0 mm | - | 209 W/m² | - |
| 1777493868 | 9.44° C | 54% | 1007.1 hPa | 0 mm | - | 209 W/m² | - |
| 1777493566 | 8.89° C | 58% | 1007.5 hPa | 0 mm | - | 184 W/m² | - |
| 1777493263 | 9.44° C | 59% | 1007.3 hPa | 0 mm | - | 223 W/m² | - |
| 1777492959 | 9.44° C | 63% | 1007.4 hPa | 0 mm | - | 256 W/m² | - |
| 1777492657 | 9.44° C | 61% | 1007.6 hPa | 0 mm | - | 289 W/m² | - |
| 1777492357 | 8.89° C | 64% | 1007.6 hPa | 0 mm | - | 580 W/m² | - |
| 1777492054 | 8.89° C | 70% | 1007.7 hPa | 0 mm | - | 318 W/m² | - |
| 1777491751 | 8.33° C | 72% | 1007.6 hPa | 0 mm | - | 227 W/m² | - |
* Rain latest hour (hover to see other rain measurements)
** Current wind speed in m/s (hover to see current wind gust speed)